Total_Precipitation_Accumulation
0.02 0.07 0.24 0.52 1.17 1.51 1.29 0.71 0.53 0.42 0.42 0.44 0.45 0.43 0.45 0.52 0.83 1.19 0.73 0.38 0.14 0.04 0.05 0.17 0.31 0.28 0.24 0.23 0.23 0.25 0.25 0.22 0.21 0.18 0.14 0.13 0.12 0.13 0.15 0.17 0.18 0.20 0.24 0.28 0.31 0.32 0.29 0.30 0.36
0.04 0.11 0.32 0.79 1.46 1.49 1.10 0.60 0.46 0.36 0.39 0.39 0.36 0.40 0.52 0.58 0.46 0.45 0.51 0.37 0.14 0.05 0.03 0.07 0.21 0.26 0.24 0.23 0.24 0.25 0.24 0.21 0.20 0.17 0.14 0.14 0.15 0.15 0.19 0.20 0.21 0.24 0.28 0.29 0.30 0.26 0.29 0.34 0.38
0.07 0.15 0.35 0.81 0.98 0.96 0.76 0.48 0.41 0.32 0.43 0.58 0.49 0.41 0.53 0.68 0.51 0.42 0.39 0.22 0.13 0.10 0.07 0.11 0.19 0.21 0.23 0.24 0.25 0.25 0.23 0.22 0.20 0.18 0.16 0.17 0.18 0.21 0.25 0.26 0.26 0.28 0.29 0.30 0.30 0.27 0.31 0.30 0.33
0.08 0.21 0.40 0.52 0.42 0.38 0.39 0.40 0.40 0.43 0.63 0.78 0.65 0.52 0.56 0.54 0.51 0.43 0.32 0.22 0.16 0.13 0.12 0.15 0.22 0.22 0.24 0.25 0.26 0.25 0.23 0.21 0.19 0.18 0.19 0.21 0.24 0.29 0.29 0.32 0.32 0.29 0.29 0.34 0.37 0.32 0.32 0.32 0.33
0.08 0.27 0.51 0.37 0.23 0.23 0.24 0.29 0.44 0.51 0.74 0.82 0.61 0.62 0.69 0.62 0.58 0.54 0.39 0.34 0.32 0.34 0.31 0.29 0.31 0.28 0.27 0.27 0.28 0.27 0.25 0.23 0.21 0.19 0.21 0.24 0.27 0.32 0.35 0.36 0.36 0.32 0.32 0.37 0.41 0.36 0.34 0.41 0.46
0.07 0.20 0.33 0.24 0.14 0.13 0.17 0.24 0.38 0.51 0.73 0.79 0.64 0.81 0.86 0.85 0.81 0.76 0.71 0.72 0.67 0.72 0.65 0.58 0.55 0.45 0.39 0.34 0.33 0.33 0.32 0.28 0.27 0.26 0.25 0.26 0.29 0.32 0.38 0.39 0.40 0.37 0.38 0.42 0.42 0.38 0.41 0.47 0.51
0.05 0.14 0.20 0.14 0.08 0.10 0.17 0.24 0.41 0.56 0.73 0.94 0.90 0.99 0.99 1.07 1.05 0.97 0.95 0.99 1.03 1.01 0.96 0.76 0.64 0.57 0.50 0.51 0.46 0.41 0.39 0.37 0.36 0.36 0.32 0.31 0.31 0.32 0.35 0.42 0.44 0.41 0.42 0.46 0.47 0.45 0.49 0.51 0.52
0.02 0.06 0.10 0.07 0.05 0.06 0.14 0.24 0.38 0.54 0.79 0.94 0.95 1.01 1.02 0.98 1.04 1.13 1.17 1.29 1.49 1.33 1.16 0.89 0.75 0.78 0.64 0.58 0.55 0.51 0.44 0.41 0.41 0.41 0.41 0.41 0.40 0.40 0.44 0.48 0.51 0.47 0.46 0.49 0.55 0.56 0.55 0.56 0.56
0.01 0.03 0.05 0.05 0.03 0.04 0.13 0.30 0.44 0.47 0.62 0.93 1.17 1.02 0.85 0.93 1.20 1.38 1.59 1.68 1.83 1.73 1.31 0.94 0.89 1.01 0.88 0.68 0.62 0.71 0.64 0.60 0.61 0.65 0.64 0.77 0.99 0.87 0.89 0.73 0.71 0.69 0.72 0.75 0.82 0.82 0.83 0.79 0.67
0.01 0.02 0.03 0.02 0.01 0.03 0.14 0.36 0.51 0.60 0.91 1.24 1.44 1.24 1.00 0.97 1.39 1.72 1.80 1.85 1.59 1.68 1.63 1.28 1.07 1.03 0.97 0.83 0.86 1.17 1.15 1.13 1.23 1.29 1.24 1.48 1.48 1.30 0.95 0.92 1.09 1.07 1.20 1.32 1.50 1.60 1.39 1.14 0.98
0.00 0.01 0.01 0.02 0.01 0.05 0.18 0.21 0.29 0.55 1.12 1.52 1.75 1.36 1.09 1.13 1.45 1.93 2.05 1.93 1.63 1.64 1.57 1.57 1.33 1.17 1.14 1.24 1.19 1.33 1.49 1.59 1.70 1.63 1.66 1.85 1.57 1.30 1.14 1.27 1.53 1.55 1.66 1.78 2.01 2.15 1.65 1.66 1.93
0.00 0.00 0.01 0.01 0.01 0.03 0.11 0.19 0.33 0.63 1.11 1.39 1.29 1.13 1.12 1.28 1.47 1.99 2.25 2.07 1.91 1.82 1.75 2.00 1.87 1.71 1.68 1.59 1.58 1.44 1.37 1.44 1.57 1.65 1.65 1.80 1.75 1.60 1.60 1.69 1.71 1.88 2.06 2.30 2.20 2.34 2.35 2.43 2.31
0.00 0.00 0.01 0.01 0.02 0.03 0.08 0.19 0.30 0.53 0.82 0.88 0.79 0.95 1.34 1.41 1.64 2.14 2.65 2.59 2.43 2.24 2.29 2.49 2.47 2.52 2.39 2.11 1.87 1.51 1.44 1.38 1.40 1.49 1.52 1.73 1.93 1.93 2.02 1.83 1.81 1.59 1.82 2.20 2.44 2.48 2.69 2.83 2.75
0.00 0.01 0.01 0.02 0.04 0.05 0.08 0.17 0.33 0.70 0.72 0.67 0.80 1.10 1.41 1.74 1.82 2.19 2.81 2.96 2.90 2.86 3.04 3.06 3.06 3.03 2.85 2.37 2.07 1.83 1.56 1.54 1.45 1.47 1.57 2.00 2.19 2.10 2.14 2.05 1.94 1.69 1.79 2.13 2.48 2.56 2.81 2.80 2.86
0.01 0.03 0.08 0.09 0.07 0.08 0.12 0.38 0.60 0.76 0.73 0.74 0.96 1.17 1.59 2.10 2.26 2.46 2.86 3.11 3.30 3.56 3.75 3.87 3.79 3.46 3.33 2.91 2.29 1.94 1.68 1.49 1.53 1.68 1.80 2.08 2.24 2.34 2.45 2.36 2.00 1.84 1.98 2.16 2.19 2.33 2.75 2.61 2.61
0.02 0.06 0.23 0.17 0.09 0.10 0.18 0.62 0.79 0.80 0.83 0.90 1.12 1.43 1.73 2.17 2.19 2.39 2.69 3.16 3.65 4.12 4.53 4.69 4.42 4.19 3.98 3.51 2.93 2.50 2.22 2.01 1.99 2.00 1.90 1.78 1.99 2.11 2.24 1.98 1.63 1.78 2.03 2.18 2.13 2.11 2.48 2.55 2.59
0.05 0.09 0.18 0.18 0.12 0.11 0.21 0.59 0.63 0.53 0.87 1.24 1.46 1.61 1.72 1.88 1.97 2.17 2.46 3.04 3.70 4.42 5.14 5.50 5.65 5.04 4.42 3.74 3.21 2.77 2.59 2.41 2.20 1.98 1.78 1.55 1.41 1.38 1.49 1.39 1.32 1.45 1.72 1.78 1.57 1.72 2.00 2.14 2.30
0.04 0.08 0.14 0.19 0.16 0.16 0.27 0.53 0.65 0.56 0.83 1.18 1.22 1.48 1.59 1.59 1.78 2.15 2.64 3.06 3.83 4.61 5.32 5.69 5.79 5.14 4.31 3.79 3.51 3.14 2.77 2.46 2.16 1.83 1.59 1.30 1.20 1.08 1.16 1.16 1.06 1.11 1.19 1.25 1.41 1.63 1.73 1.67 1.75
0.03 0.07 0.15 0.17 0.16 0.23 0.37 0.63 0.75 0.73 0.77 0.90 1.01 1.20 1.23 1.29 1.55 2.01 2.64 3.25 4.00 5.06 5.67 5.73 5.32 4.49 3.85 3.30 2.99 2.67 2.37 2.12 1.81 1.47 1.24 1.11 1.08 1.00 1.07 1.01 1.01 0.99 0.96 0.98 1.10 1.25 1.31 1.15 1.29
0.05 0.09 0.17 0.16 0.12 0.14 0.34 0.65 0.75 0.81 0.86 0.84 0.89 0.99 0.93 1.05 1.40 2.03 2.81 3.58 4.15 4.68 4.98 4.93 4.40 3.58 3.06 2.68 2.56 2.33 2.07 1.67 1.49 1.30 1.17 1.00 0.94 0.89 0.88 0.94 0.84 0.82 0.90 0.88 0.91 1.04 1.07 0.95 1.04
0.08 0.09 0.14 0.17 0.13 0.15 0.35 0.76 0.89 0.88 0.85 0.82 0.71 0.72 0.82 1.02 1.60 2.38 3.19 3.88 4.11 4.08 3.84 3.48 3.17 2.76 2.61 2.50 2.27 2.04 1.92 1.61 1.36 1.11 0.98 0.87 0.78 0.70 0.68 0.68 0.65 0.68 0.68 0.74 0.81 0.88 0.98 0.94 0.85
0.09 0.07 0.05 0.07 0.11 0.32 0.45 0.88 0.98 0.99 0.96 0.78 0.68 0.75 0.91 1.16 1.71 2.44 3.01 3.20 3.26 3.11 2.76 2.52 2.43 2.35 2.23 2.12 1.98 1.64 1.36 1.27 1.14 1.01 0.94 0.85 0.73 0.65 0.61 0.57 0.56 0.55 0.51 0.65 0.59 0.69 0.85 0.91 0.78
0.05 0.04 0.04 0.08 0.18 0.34 0.47 0.75 1.00 1.00 1.08 0.69 0.52 0.61 0.75 1.00 1.29 1.52 1.75 1.88 1.98 1.95 1.99 2.02 2.10 2.16 2.03 1.95 1.88 1.70 1.37 1.29 1.26 1.21 1.18 1.04 0.87 0.75 0.62 0.60 0.58 0.56 0.48 0.53 0.56 0.68 0.76 0.82 0.76
0.04 0.06 0.12 0.21 0.36 0.71 0.69 0.80 1.08 1.06 0.90 0.50 0.32 0.37 0.57 0.72 0.79 0.89 0.97 1.05 1.25 1.28 1.37 1.52 1.60 1.71 1.80 1.75 1.59 1.50 1.36 1.35 1.36 1.25 1.07 0.91 0.86 0.80 0.68 0.65 0.71 0.64 0.60 0.59 0.58 0.63 0.66 0.79 0.86
0.05 0.09 0.31 0.63 0.98 1.04 0.62 0.70 1.07 0.98 0.65 0.35 0.23 0.21 0.28 0.45 0.63 0.76 0.85 0.90 1.03 0.99 1.04 1.16 1.24 1.27 1.36 1.35 1.27 1.24 1.29 1.28 1.19 1.09 0.98 0.85 0.69 0.65 0.68 0.64 0.68 0.66 0.69 0.66 0.67 0.70 0.64 0.70 0.80
0.06 0.07 0.18 0.35 0.45 0.60 0.63 1.10 1.28 0.70 0.39 0.24 0.17 0.15 0.20 0.35 0.52 0.61 0.61 0.66 0.74 0.70 0.78 0.89 1.00 1.04 1.06 1.10 1.11 1.09 1.15 1.07 1.01 1.06 0.98 0.85 0.70 0.65 0.64 0.61 0.59 0.62 0.66 0.69 0.82 0.74 0.73 0.75 0.73
0.06 0.05 0.07 0.09 0.16 0.42 0.77 1.09 0.98 0.55 0.37 0.21 0.17 0.16 0.18 0.26 0.38 0.43 0.36 0.39 0.49 0.57 0.64 0.71 0.86 0.95 0.93 0.98 1.01 0.98 1.03 1.05 1.06 1.04 0.95 0.81 0.79 0.70 0.69 0.65 0.71 0.76 0.78 0.81 0.89 0.82 0.78 0.81 0.74
0.06 0.06 0.07 0.10 0.18 0.37 0.67 1.07 1.19 0.82 0.44 0.25 0.23 0.25 0.23 0.23 0.27 0.29 0.28 0.27 0.34 0.46 0.59 0.69 0.80 0.88 0.90 0.94 0.93 0.79 0.91 0.99 1.10 1.06 0.96 0.88 0.89 0.79 0.80 0.78 0.79 0.85 0.84 0.83 0.90 0.87 0.91 0.95 0.92
0.09 0.08 0.10 0.10 0.11 0.21 0.51 0.75 0.61 0.57 0.37 0.31 0.29 0.29 0.25 0.23 0.25 0.25 0.22 0.23 0.26 0.34 0.48 0.59 0.74 0.81 0.83 0.87 0.94 0.99 0.98 0.89 0.95 0.99 0.98 0.98 0.99 0.90 0.89 0.90 0.94 0.93 0.94 0.98 1.04 1.01 1.06 1.16 1.28
0.11 0.11 0.12 0.13 0.12 0.13 0.26 0.39 0.37 0.52 0.46 0.38 0.35 0.35 0.34 0.23 0.21 0.23 0.25 0.24 0.26 0.29 0.36 0.45 0.58 0.70 0.76 0.83 0.93 1.00 1.05 0.95 0.91 0.94 0.99 1.03 1.09 1.12 1.07 1.01 1.01 0.96 0.98 1.11 1.16 1.19 1.19 1.19 1.22